Tracking 30918 objects as of 2-Jul-2025
HD Live streaming from Space Station
objects crossing your sky now

STARLINK-30344

Track STARLINK-30344 now!
10-day predictions
STARLINK-30344 is classified as:


NORAD ID: 57737
Int'l Code: 2023-131F
Perigee: 565.5 km
Apogee: 566.9 km
Inclination: 43.0 °
Period: 95.8 minutes
Semi major axis: 6937 km
RCS: Unknown
Launch date: September 1, 2023
Source: United States (US)
Launch site: AIR FORCE EASTERN TEST RANGE (AFETR)
Your satellite tracking list
Your tracking list is empty




NASA's NSSDC Master Catalog

Two Line Element Set (TLE):
1 57737U 23131F   25182.46119463 -.00000877  00000-0 -49870-4 0  9997
2 57737  43.0029  96.8346 0000969 260.7027  99.3706 15.02540545102135
Source of the keplerian elements: AFSPC